Location: Dobie Observatory
(42.2815°N, 84.4219°W)
Time: 14:56:26
(UTC-05:00)

Tiangong - Visible Passes

Search period start: 18 January 2026 00:00
Search period end: 28 January 2026 00:00
Orbit: 378 x 393 km, 41.5° (Epoch: 18 January)

Date Brightness Start Highest point End Pass type
(mag) Time Alt. Az. Time Alt. Az. Time Alt. Az.
18 Jan 0.1 06:20:51 14° SSW 06:22:42 22° SSE 06:25:16 10° E visible
19 Jan 1.2 05:24:49 12° ESE 05:24:49 12° ESE 05:25:22 10° ESE visible
19 Jan -1.3 06:57:05 11° WSW 06:59:59 49° SSE 07:03:06 10° E visible
20 Jan -0.7 06:00:51 34° SSE 06:00:51 34° SSE 06:03:40 10° E visible
21 Jan -1.9 06:36:43 31° WSW 06:38:03 65° S 06:41:13 10° E visible
22 Jan 0.2 05:40:12 25° E 05:40:12 25° E 05:41:47 10° E visible
22 Jan -2.1 07:12:27 11° W 07:15:26 78° S 07:18:39 10° E visible
23 Jan -2.2 06:15:51 74° SSW 06:15:59 76° S 06:19:10 10° E visible
24 Jan 1.2 05:19:11 14° E 05:19:11 14° E 05:19:40 10° E visible
24 Jan -2.0 06:51:24 22° W 06:53:18 70° S 06:56:29 10° ESE visible
25 Jan -1.0 05:54:41 43° ESE 05:54:41 43° ESE 05:56:58 10° E visible
26 Jan -1.8 06:30:09 39° WSW 06:31:00 55° SSW 06:34:07 10° ESE visible
27 Jan 0.5 05:33:22 21° ESE 05:33:22 21° ESE 05:34:35 10° ESE visible
27 Jan -0.6 07:05:35 12° W 07:08:01 26° SSW 07:10:45 10° SE visible
